CW2840 Weather Reports


time (UTC)temp
C
wind
direction
speed
KPH
gust
KPH
rain 1hr
cm
rain 24hr
cm
rain mn
cm
humidity
%
barometer
mb
20260903125922 26 152 1.6 4.8 0.00 3.20 0.10 91 1014.7
20260903124422 26 152 0.0 3.2 0.00 3.20 0.10 91 1014.5
20260903122921 26 152 0.0 0.0 0.00 3.20 0.10 91 1014.2
20260903121421 26 152 0.0 3.2 0.00 3.20 0.10 91 1013.9
20260903115921 26 152 0.0 4.8 0.00 3.20 0.10 91 1013.8
20260903115112 26 152 3.2 3.2 0.00 3.20 0.10 91 1013.8
20260903112920 26 152 0.0 4.8 0.00 3.20 0.10 90 1013.8
20260903111419 26 152 1.6 3.2 0.00 3.20 0.10 90 1013.7
20260903105919 26 152 0.0 3.2 0.00 3.20 0.10 90 1013.7
20260903104419 26 152 0.0 4.8 0.00 3.20 0.10 90 1013.5
20260903102919 26 152 0.0 3.2 0.00 3.20 0.10 90 1013.5
20260903101419 26 152 3.2 8.0 0.00 3.20 0.10 90 1013.4
20260903100614 26 152 0.0 8.0 0.00 3.20 0.10 90 1013.5
20260903094418 26 152 0.0 4.8 0.00 3.20 0.10 90 1013.3
20260903092918 26 152 3.2 3.2 0.00 3.20 0.10 90 1013.3
20260903091417 26 152 0.0 3.2 0.00 3.20 0.10 90 1013.3
20260903085917 26 152 0.0 11.3 0.00 3.23 0.10 90 1013.4
20260903084417 26 152 3.2 11.3 0.00 3.23 0.10 90 1013.2
20260903082916 26 135 3.2 8.0 0.00 3.23 0.10 90 1013.2
20260903081416 26 141 6.4 17.7 0.00 3.23 0.10 90 1013.1
20260903081310 26 151 3.2 17.7 0.00 3.23 0.10 91 1013.1
20260903074415 26 157 4.8 14.5 0.00 3.23 0.10 91 1013.1
20260903072915 26 141 3.2 11.3 0.00 3.23 0.10 91 1012.9
20260903071414 26 141 3.2 8.0 0.00 3.23 0.10 91 1013.1
20260903065914 26 141 1.6 4.8 0.03 3.20 0.10 91 1013.2
20260903064414 26 141 0.0 3.2 0.05 3.20 0.10 91 1013.3
20260903062914 26 141 0.0 8.0 0.08 3.20 0.10 91 1013.4
20260903061413 26 157 4.8 11.3 0.10 3.20 0.10 91 1013.4
20260903060615 26 157 9.7 17.7 0.08 3.12 0.08 91 1013.7
20260903055110 26 128 1.6 4.8 0.05 3.12 0.05 91 1014.0
20260903052912 26 128 0.0 3.2 0.03 3.12 0.03 90 1014.3
20260903051412 25 128 0.0 4.8 0.00 3.12 0.00 90 1014.4
20260903045912 25 128 0.0 3.2 0.00 3.12 3.12 90 1014.7
20260903044412 25 128 1.6 3.2 0.00 3.12 3.12 90 1014.7
20260903042910 25 128 0.0 3.2 0.00 3.12 3.12 90 1014.8
20260903041408 25 128 0.0 4.8 0.00 3.12 3.12 90 1014.5
20260903035907 25 128 0.0 3.2 0.00 3.12 3.12 90 1014.5
20260903034404 25 128 0.0 4.8 0.00 3.12 3.12 90 1014.4
20260903032906 25 128 0.0 11.3 0.00 3.12 3.12 90 1014.4
20260903031402 25 127 0.0 4.8 0.00 3.12 3.12 89 1014.2
20260903030613 24 127 3.2 4.8 0.00 3.12 3.12 89 1014.0
20260903024402 24 127 0.0 3.2 0.00 3.12 3.12 89 1013.9
20260903022903 24 127 0.0 4.8 0.08 3.12 3.12 88 1013.6
20260903021403 24 127 3.2 8.0 0.08 3.12 3.12 88 1013.2
20260903020555 24 102 4.8 8.0 0.08 3.05 3.12 87 1013.1
20260903014402 25 83 4.8 8.0 0.08 3.05 3.12 87 1013.2
20260903012902 25 80 3.2 11.3 0.00 3.05 3.05 87 1013.5
20260903011403 24 240 8.0 14.5 0.00 3.05 3.05 87 1013.7
20260903005902 24 109 1.6 20.9 0.00 3.05 3.05 86 1013.2
20260903004402 25 59 8.0 17.7 1.37 3.05 3.05 85 1012.4
20260903002902 24 97 6.4 17.7 2.26 3.05 3.05 85 1012.6
20260903001402 24 89 11.3 20.9 2.26 3.05 3.05 86 1012.4
20260903000557 25 18 12.9 54.7 2.26 0.79 3.05 85 1012.1
20260902234402 26 0 11.3 40.2 1.07 0.79 1.45 84 1012.3
20260902232902 26 302 9.7 32.2 0.20 0.79 0.79 85 1011.7
20260902231402 26 350 8.0 22.5 0.56 0.81 0.79 85 1011.5
20260902225903 26 3 8.0 22.5 0.76 0.15 0.79 85 1011.1
20260902224402 26 326 4.8 11.3 0.56 0.23 0.58 83 1011.3
20260902222902 27 350 6.4 14.5 0.56 0.36 0.58 79 1011.3
20260902221403 32 8 9.7 25.7 0.20 0.43 0.13 61 1011.9
20260902215902 33 148 6.4 22.5 0.00 0.66 0.03 52 1011.2
20260902214403 33 185 8.0 29.0 0.00 0.84 0.03 52 1011.3
20260902212902 33 190 8.0 29.0 0.00 0.84 0.03 52 1011.2
20260902212759 34 135 9.7 25.7 0.00 0.84 0.03 53 1011.4
20260902211634 34 166 8.0 20.9 0.00 0.84 0.03 53 1011.7
20260902211233 35 159 9.7 32.2 0.00 0.84 0.03 51 1011.7
20260902202901 35 155 16.1 29.0 0.00 0.84 0.03 52 1011.9
20260902201400 34 127 11.3 29.0 0.00 0.84 0.03 53 1012.2
20260902195900 34 176 6.4 38.6 0.00 0.84 0.03 53 1012.0
20260902194401 34 147 12.9 29.0 0.00 0.84 0.03 54 1012.4
20260902193555 33 197 6.4 25.7 0.00 0.84 0.03 54 1012.7
20260902191400 33 223 14.5 35.4 0.00 0.84 0.03 56 1012.8
20260902185900 33 195 4.8 25.7 0.00 0.84 0.03 58 1012.9
20260902184358 33 212 6.4 32.2 0.00 0.84 0.03 58 1013.2
20260902182858 33 252 8.0 32.2 0.00 0.84 0.03 63 1013.5
20260902181357 32 144 8.0 17.7 0.00 0.84 0.03 64 1013.8
20260902175855 32 162 6.4 20.9 0.00 0.84 0.03 67 1014.2
20260902174353 31 258 3.2 20.9 0.00 0.84 0.03 69 1014.5
20260902173545 31 276 9.7 20.9 0.00 0.84 0.03 70 1014.8
20260902171349 30 195 8.0 22.5 0.00 0.84 0.03 71 1015.0
20260902165847 30 261 8.0 35.4 0.00 0.84 0.03 72 1015.3
20260902164345 30 290 4.8 17.7 0.00 0.84 0.03 74 1015.4
20260902162844 29 258 6.4 25.7 0.00 0.84 0.03 75 1015.4
20260902161341 29 264 4.8 22.5 0.00 0.84 0.03 76 1015.5
20260902155840 29 168 6.4 22.5 0.00 0.84 0.03 78 1015.3
20260902154337 28 259 9.7 38.6 0.00 0.84 0.03 79 1015.3
20260902152835 28 235 6.4 20.9 0.00 0.84 0.03 80 1015.3
20260902152044 28 275 9.7 25.7 0.00 0.84 0.03 82 1015.1
20260902150534 27 262 4.8 20.9 0.00 0.84 0.03 83 1015.3
20260902144331 27 258 3.2 22.5 0.00 0.84 0.03 83 1015.2
20260902143528 27 265 8.0 22.5 0.00 0.84 0.03 84 1015.3
20260902141331 27 275 3.2 25.7 0.00 0.84 0.03 84 1015.1
20260902135831 27 296 4.8 22.5 0.00 0.84 0.03 85 1014.9
20260902134331 27 251 4.8 17.7 0.00 0.84 0.03 85 1015.1
20260902132831 26 272 4.8 17.7 0.00 0.84 0.03 85 1014.9
20260902131330 26 251 6.4 20.9 0.00 0.84 0.03 85 1014.8